Location: Alpha Ridge Park
(39.3209°N, 76.9128°W)
Time: 09:19:25
(UTC-04:00)

Transit 2A - Pass Details

Date: 25 May 2019
Orbit: 593 x 966 km, 66.7° (Epoch: 23 June)

Event Time Altitude Azimuth Distance (km) Brightness Sun altitude
Rises 10:29:09 0° 280° (W) 3,632 9.1 52.1°
Reaches altitude 10° 10:35:23 10° 325° (NW) 2,709 8.6 53.3°
Maximum altitude 10:35:42 10° 328° (NNW) 2,706 8.7 53.3°
Drops below altitude 10° 10:36:01 10° 331° (NNW) 2,708 8.7 53.4°
Sets 10:42:15 0° 16° (NNE) 3,619 9.5 54.5°
